User: anonymous   Login
Location: Narrabri
(30.3170°S, 149.7830°E)
Time: 20:25:23
(UTC+11:00)
Language:

VELOX 1 - Orbit

View from above orbital plane
View from above orbital plane
View from above satellite
View from above satellite

Ground track
Ground track

The orbit data is extracted from the following two-line orbital elements,

1 40057U 14034E   19084.15101867  .00000241  00000-0  41241-4 0  9992
2 40057  98.2222 205.4599 0011853 142.2426 217.9618 14.77607756255136
Epoch (UTC): 25 March 2019 03:37:28
Eccentricity: 0.0011853
inclination: 98.2222°
perigee height: 628 km
apogee height: 645 km
right ascension of ascending node: 205.4599°
argument of perigee: 142.2426°
revolutions per day: 14.77607756
mean anomaly at epoch: 217.9618°
orbit number at epoch: 25513

The dashed part of the orbit path shows where the satellite is in the earth's shadow,  

DLR